Airfield :
LOGIN :

Register | Disclaimer

   EN    FR    IT 

 










Legend :    VFR   Marginal VFR   IFR   Intensive IFR   Very Intensive IFR
Visi :
Ceiling :
>= 8 km
>= 3000ft
5 to 8 km
1000 to 3000 ft
1500m to 5 km
500 to 1000 ft
800 to 1500m
200 to 500 ft
< 800m
< 200 ft
Symbols :   Thunderstorms  Fog  Heavy snow  Heavy precipitations  Wind > 20 kt
SIGMETs :     Misc.  Thunderstorms  Icing  Turbulence  Mountain Waves  Volcanic Ashes







- Airport Elevation : 370 ft


EBBE - Beauvechain AB

CURRENT METAR :
  • 221955Z AUTO 33003KT 9999 NCD 22/12 Q1017 BLU

EXPIRED METARs :
  • 221925Z AUTO 32005KT 9999 FEW065/// 23/12 Q1016 BLU
  • 221855Z AUTO 32005KT 9999 SCT070/// 24/12 Q1016 BLU
  • 221825Z AUTO 33007KT 9999 FEW060/// 25/12 Q1016 BLU
  • 221755Z AUTO 35010KT 9999 BKN055/// BKN100/// 26/12 Q1016 BLU
  • 221725Z AUTO 35007KT 9999 BKN055/// BKN080/// 26/12 Q1015 BLU

Expired Forecast.
No reported NOTAMs for that airfield.



MET'MAP, your aeronautical weather chart ! - Copyright ORBIFLY December 2007 - Disclaimer

ORBIFLY MET'MAP TEAM :

Programming & Development : Alexandra Zaïnal
Concept & Development : Baudouin d'Aumeries
Co-Development & Prog : Marc-Olivier Méhu
Technical & hardware support : Manuel Goepfert

Contact : metmap@orbifly.com




SOURCES & CREDITS :

   NOAA